Home   Weather   Klosterneuburg   Past weeks

Flag for Austria Past Weather in Klosterneuburg, Lower Austria, Austria — Yesterday and Last 2 Weeks

Now
30 °F

Sunny.


Feels Like: 26 °F
Forecast: 17 / 24 °F
Wind: 3 mph from Southeast

Location: Wien / Hohe Warte

Current Time: Jan 22, 2017 at 1:44:53 pm

Latest Report: Jan 22, 2017 at 12:00 pm


Visibility: 4 mi

Pressure: 30.50 "Hg

Humidity: 72%

Dew Point: 22 °F

Location of KlosterneuburgLocation

Past Weather in Klosterneuburg — Graph

°F

Klosterneuburg Temperature Yesterday

Maximum temperature yesterday: 28 °F (at 3:00 pm)
Minimum temperature yesterday: 16 °F (at 7:00 am)
Average temperature yesterday: 21 °F

High & Low Weather Summary for the Past Weeks

 TemperatureHumidityPressure
High44 °F (Jan 12, 1:00 pm)92% (Jan 8, 6:00 am)30.71 "Hg (Jan 8, 6:00 am)
Low10 °F (Jan 11, 7:00 am)41% (Jan 7, 2:00 pm)29.41 "Hg (Jan 13, 6:00 am)
Average26 °F76%30.25 "Hg
* Reported Jan 7 12:00 pm — Jan 22 12:00 pm, Klosterneuburg, Weather by CustomWeather, © 2017

Note: Actual official high and low records may vary slightly from our data, if they occured in-between our weather recording intervals... More about our weather records

Advertising

Klosterneuburg Weather History for the Previous 24 Hours

Scroll right to see more
 ConditionsComfort  
Time TempWeatherWind HumidityBarometerVisibility
12:00 pm
Sun, Jan 22
30 °FSunny.3 mph72%30.50 "Hg4 mi
11:00 am27 °FSunny.3 mph79%30.53 "Hg4 mi
10:00 am24 °FFog.3 mph83%30.53 "Hg3 mi
9:00 am21 °FFog.3 mph87%30.54 "Hg2 mi
8:00 am20 °FFog.5 mph88%30.54 "Hg2 mi
7:00 am19 °FPassing clouds.2 mph90%30.54 "Hg5 mi
6:00 am20 °FPassing clouds.2 mph89%30.54 "Hg5 mi
5:00 am20 °FCold.2 mph88%30.54 "HgN/A
4:00 am20 °FCold.2 mph88%30.54 "HgN/A
3:00 am20 °FCold.2 mph87%30.55 "HgN/A
2:00 am20 °FCold.3 mph87%30.55 "HgN/A
1:00 am20 °FPassing clouds.2 mph88%30.55 "Hg5 mi
12:00 am20 °FCold.2 mph88%30.56 "HgN/A
11:00 pm
Sat, Jan 21
21 °FCold.1 mph88%30.56 "HgN/A
10:00 pm21 °FClear.1 mph87%30.55 "Hg5 mi
9:00 pm23 °FClear.1 mph84%30.54 "Hg6 mi
8:00 pm23 °FClear.2 mph83%30.53 "Hg6 mi
7:00 pm24 °FClear.2 mph81%30.53 "Hg6 mi
6:00 pm25 °FClear.2 mph79%30.53 "Hg3 mi
5:00 pm26 °FClear.2 mph75%30.53 "Hg3 mi
4:00 pm27 °FSunny.2 mph71%30.53 "Hg3 mi
3:00 pm28 °FSunny.2 mph70%30.53 "Hg3 mi
2:00 pm26 °FSunny.1 mph74%30.53 "Hg2 mi
1:00 pm23 °FFog.2 mph80%30.55 "Hg2 mi
Weather by CustomWeather, © 2017

See weather overviewHow to use our weather pages